Temp
-1 -1 0 0 1 1 1 1 2 3 2 2 1 2 3 4 4 6 6 6 6 5 5 7 6 6 6 6 6 6 7 7 7 7 7 7 7 6 6 7 7 7 7 7
-2 -1 2 -1 -0 -0 -0 0 1 1 2 1 1 2 3 3 3 6 7 7 7 7 6 6 6 7 7 7 7 6 7 7 7 7 7 7 6 6 6 6 6 6 6 6
-2 2 -1 -1 -1 -1 -1 0 1 -0 1 1 1 2 3 6 5 6 7 8 7 8 7 7 7 7 7 7 7 7 6 6 7 7 7 7 6 6 6 7 6 6 6 6
-2 -1 -1 -1 -1 -1 -1 -0 -0 -0 0 1 2 2 4 6 6 5 7 8 8 8 9 8 7 7 7 7 8 7 6 6 6 6 7 7 7 7 7 6 6 6 6 6
-2 -2 -2 -2 -1 -1 -1 -1 -1 -0 -0 -0 0 0 3 4 5 5 5 9 9 9 9 9 8 8 8 8 7 7 7 7 7 6 7 7 7 7 7 6 6 6 6 5
-2 -2 -2 -1 -1 -1 -1 -1 -1 -1 -1 -1 -0 1 4 4 7 5 6 8 9 9 10 9 9 8 8 8 8 8 7 7 7 6 7 7 8 7 7 6 6 6 6 6
-3 -3 -3 -2 -2 -2 -1 -1 -1 -1 -1 1 2 2 2 5 5 5 7 7 8 9 9 9 9 9 9 9 9 8 8 7 7 7 7 7 7 7 7 7 7 6 6 6
-3 -2 -3 -2 -2 -1 -1 -2 -1 1 1 3 4 2 4 5 6 7 8 8 8 9 9 9 9 9 9 9 9 9 8 8 7 7 7 7 7 7 7 7 7 7 6 6
-2 -2 -1 -2 -1 -2 -1 -2 0 -2 -1 -2 0 3 4 5 6 7 7 8 8 8 8 8 9 8 8 8 9 8 8 8 7 7 7 7 7 6 7 7 7 7 7 6
-2 -2 -2 -1 -3 -2 -2 -1 -1 -1 0 0 3 4 5 6 5 6 7 7 8 8 9 9 9 8 8 9 8 8 8 8 7 8 8 8 7 7 7 6 7 6 7 7
-4 -3 -2 -2 -3 -2 -3 -3 -2 -2 -1 1 3 5 5 5 5 6 6 7 6 7 7 7 8 8 8 8 8 8 8 8 8 8 8 8 8 8 7 7 6 6 6 6
-5 -4 -3 -3 -3 -2 -2 -2 -2 -2 -1 -1 1 2 4 5 6 6 5 5 5 5 6 7 7 7 8 8 9 9 8 8 8 8 8 8 8 8 7 7 6 6 6 6
-5 -4 -4 -4 -3 -3 -3 -2 -2 -2 -2 -1 -1 1 3 3 4 5 6 5 5 5 6 6 6 6 7 7 7 7 7 8 8 8 8 8 8 8 7 7 6 6 6 6
-5 -4 -4 -3 -1 -1 -3 -4 -3 -2 -2 -2 -1 0 3 2 3 4 4 5 6 5 6 6 5 5 6 7 6 6 7 7 8 8 8 8 8 8 8 7 6 6 6 6
-5 -5 -5 -3 -3 -2 -2 -3 -3 -3 -3 -2 -1 -0 3 2 2 2 2 3 5 5 5 6 5 6 6 6 5 6 6 6 6 7 7 7 7 8 8 8 7 6 6 6
-5 -5 -5 -5 -4 -4 -4 -4 -4 -3 -3 -4 -3 -3 3 3 2 2 1 1 2 4 5 5 6 6 6 5 5 5 6 6 6 6 6 7 7 7 7 8 7 6 6 5
-5 -6 -6 -5 -4 -5 -5 -3 -3 -3 -3 -3 -3 -0 2 2 1 -0 0 2 2 3 3 3 5 6 6 6 6 5 5 6 6 6 6 7 7 7 7 7 7 6 6 5
-5 -6 -6 -6 -5 -5 -3 -3 -2 -2 -3 -3 -2 0 2 2 1 0 1 3 3 3 3 4 4 5 5 5 6 5 5 5 6 6 6 7 6 6 7 7 6 7 6 5
-5 -5 -6 -6 -5 -5 -4 -2 -2 -2 -2 -2 -2 1 2 -0 -1 2 3 1 2 2 3 4 4 4 5 5 5 5 5 5 5 6 6 6 6 7 7 7 6 6 6 6
-6 -7 -7 -7 -6 -5 -3 -3 -3 -2 -3 -2 -2 -1 -2 -2 -1 2 0 1 1 1 1 2 4 3 3 6 5 4 5 5 6 6 5 6 6 6 6 6 6 6 6 5
-6 -9 -9 -8 -7 -6 -5 -4 -4 -3 -2 -2 -1 -1 -1 -1 -1 -1 -1 -0 0 1 1 1 1 3 4 4 5 5 5 6 6 4 4 5 5 6 6 6 5 5 5 5
-5 -7 -8 -8 -7 -6 -5 -4 -5 -4 -3 -4 -3 -3 -2 -2 -2 -1 -1 -1 -1 0 2 0 1 2 3 2 3 5 5 5 4 4 4 4 5 5 5 5 5 5 5 4
-7 -6 -6 -6 -5 -5 -5 -5 -5 -5 -5 -5 -5 -3 -3 -2 -2 -2 -0 -0 -1 -1 -0 0 1 2 2 3 3 4 5 4 3 4 4 4 4 4 5 4 4 4 4 4
-8 -7 -7 -7 -5 -7 -6 -6 -6 -6 -6 -6 -5 -5 -4 -4 -3 -2 -2 -1 -1 -1 -1 -0 1 1 2 2 3 3 4 4 3 3 3 3 4 4 4 4 4 4 3 3
-9 -9 -8 -7 -7 -7 -8 -7 -7 -7 -7 -7 -6 -6 -5 -5 -3 -3 -2 -2 -1 -1 -2 -2 -0 1 1 2 2 3 3 4 4 4 3 3 3 3 3 3 3 3 3 3
-8 -9 -9 -9 -9 -8 -8 -9 -9 -9 -8 -8 -7 -6 -6 -6 -4 -4 -4 -3 -3 -2 -2 -2 -1 -1 0 1 2 2 3 3 3 3 3 3 2 2 2 2 2 3 3 2
Height
3100 3107 3104 3106 3109 3116 3119 3119 3119 3121 3127 3124 3120 3120 3121 3123 3121 3122 3122 3123 3124 3126 3130 3132 3133 3135 3138 3139 3139 3140 3142 3143 3144 3146 3149 3150 3152 3154 3156 3158 3160 3161 3162 3164
3098 3097 3096 3106 3109 3110 3109 3113 3112 3116 3123 3117 3117 3112 3114 3113 3111 3113 3115 3116 3117 3119 3121 3122 3124 3125 3128 3132 3133 3134 3137 3138 3139 3141 3144 3146 3147 3149 3150 3152 3154 3156 3158 3159
3088 3087 3101 3102 3104 3106 3107 3108 3108 3110 3117 3112 3111 3102 3105 3100 3102 3104 3105 3106 3109 3111 3113 3115 3115 3116 3119 3121 3125 3128 3130 3133 3135 3136 3137 3139 3140 3141 3143 3145 3148 3151 3153 3154
3084 3088 3094 3094 3097 3102 3100 3104 3105 3107 3113 3108 3111 3093 3094 3095 3095 3094 3094 3096 3099 3103 3106 3107 3108 3108 3109 3112 3118 3120 3123 3126 3128 3129 3131 3131 3133 3136 3140 3142 3144 3145 3146 3148
3075 3083 3086 3088 3090 3097 3091 3103 3101 3104 3104 3104 3101 3100 3070 3090 3083 3085 3087 3088 3091 3095 3098 3098 3100 3101 3101 3104 3106 3110 3115 3117 3120 3121 3122 3124 3126 3131 3133 3134 3136 3137 3140 3141
3072 3078 3080 3082 3089 3092 3094 3097 3098 3098 3100 3093 3088 3093 3069 3074 3072 3080 3081 3082 3086 3088 3089 3090 3092 3094 3094 3095 3098 3101 3103 3106 3109 3111 3115 3117 3120 3124 3124 3127 3129 3131 3133 3135
3065 3068 3074 3077 3081 3085 3088 3093 3091 3090 3089 3080 3081 3084 3068 3065 3070 3073 3075 3075 3080 3081 3081 3082 3084 3086 3087 3088 3089 3093 3094 3096 3100 3102 3105 3108 3112 3116 3117 3120 3122 3124 3126 3128
3063 3066 3064 3065 3071 3075 3076 3080 3080 3074 3074 3069 3070 3068 3058 3062 3061 3065 3067 3070 3074 3076 3077 3077 3078 3079 3080 3081 3081 3083 3085 3088 3090 3092 3095 3100 3104 3107 3110 3112 3114 3115 3118 3121
3054 3054 3060 3062 3064 3075 3073 3070 3076 3077 3072 3075 3070 3058 3059 3059 3057 3060 3062 3064 3066 3068 3070 3069 3071 3072 3071 3072 3073 3074 3077 3079 3081 3084 3088 3090 3094 3097 3100 3104 3106 3109 3111 3113
3051 3051 3054 3057 3063 3066 3067 3073 3069 3065 3062 3059 3056 3055 3047 3051 3053 3054 3054 3057 3059 3059 3061 3061 3062 3063 3064 3064 3065 3065 3067 3069 3073 3075 3078 3080 3084 3087 3091 3094 3096 3100 3102 3104
3048 3051 3052 3052 3053 3054 3059 3058 3062 3060 3059 3054 3050 3041 3046 3049 3053 3049 3050 3050 3053 3054 3055 3055 3055 3056 3057 3056 3058 3059 3059 3062 3064 3067 3069 3071 3074 3077 3080 3082 3086 3090 3093 3094
3039 3046 3046 3047 3049 3052 3053 3050 3054 3051 3050 3050 3048 3032 3044 3046 3047 3047 3044 3042 3042 3046 3047 3048 3050 3050 3049 3050 3050 3051 3052 3054 3056 3058 3060 3062 3065 3067 3069 3071 3075 3079 3082 3085
3036 3037 3041 3041 3045 3044 3041 3041 3045 3045 3046 3040 3041 3033 3037 3041 3044 3041 3039 3041 3039 3039 3042 3042 3044 3045 3045 3043 3043 3044 3045 3045 3047 3049 3050 3052 3054 3056 3058 3061 3065 3068 3072 3075
3030 3032 3033 3030 3030 3035 3035 3034 3037 3040 3038 3031 3033 3032 3016 3030 3033 3034 3039 3038 3037 3035 3035 3035 3037 3040 3039 3037 3038 3037 3036 3036 3037 3039 3041 3043 3045 3046 3048 3051 3054 3058 3061 3063
3025 3024 3027 3025 3029 3031 3030 3027 3028 3028 3028 3030 3027 3028 3009 3018 3026 3031 3032 3030 3029 3028 3026 3028 3031 3031 3029 3029 3030 3029 3028 3027 3029 3029 3031 3033 3036 3037 3038 3039 3043 3046 3049 3053
3017 3020 3019 3018 3022 3023 3022 3021 3022 3022 3021 3022 3021 3015 3008 3009 3017 3016 3021 3021 3017 3016 3017 3019 3023 3023 3020 3021 3023 3020 3020 3019 3019 3020 3022 3024 3024 3026 3027 3029 3032 3036 3039 3042
3016 3016 3016 3015 3015 3016 3017 3008 3013 3011 3012 3014 3012 3007 3003 3002 3009 3013 3013 3009 3005 3007 3007 3007 3009 3011 3010 3010 3014 3012 3011 3011 3010 3011 3012 3013 3013 3015 3018 3020 3022 3024 3027 3030
3010 3012 3014 3011 3013 3010 3000 3005 3006 3004 3002 3005 3003 2997 2992 2996 2998 3001 2999 2995 2995 2998 2997 2996 2997 2999 3000 3000 3003 3004 3002 3002 3002 3003 3003 3004 3004 3005 3007 3009 3012 3015 3017 3020
3008 3010 3010 3010 3008 3002 2994 2994 2998 2996 2990 2997 2992 2986 2984 2991 2991 2979 2986 2988 2986 2987 2984 2982 2983 2984 2984 2986 2988 2989 2990 2991 2992 2994 2995 2996 2997 2997 2999 3000 3003 3006 3008 3010
3001 3003 3008 3006 3004 2996 2980 2990 2990 2990 2981 2986 2985 2981 2980 2981 2978 2970 2977 2977 2976 2977 2974 2971 2969 2970 2968 2973 2973 2975 2976 2977 2977 2982 2986 2988 2990 2991 2991 2992 2994 2997 2998 3001
2995 2998 2998 3000 3001 2983 2978 2981 2983 2984 2971 2973 2974 2970 2970 2970 2967 2960 2967 2967 2968 2965 2962 2961 2959 2955 2954 2955 2958 2959 2962 2963 2967 2968 2973 2976 2979 2980 2982 2983 2985 2988 2990 2993
2990 2992 2992 2994 2993 2975 2976 2975 2977 2974 2963 2963 2967 2962 2957 2956 2953 2949 2948 2951 2954 2952 2950 2950 2947 2945 2944 2944 2943 2944 2946 2950 2951 2955 2958 2962 2966 2969 2971 2973 2976 2977 2980 2983
2985 2983 2983 2981 2972 2972 2969 2969 2968 2964 2961 2955 2957 2958 2949 2943 2941 2939 2935 2935 2938 2938 2938 2938 2937 2935 2935 2934 2934 2932 2935 2935 2937 2939 2944 2948 2952 2956 2960 2963 2966 2968 2970 2972
2975 2974 2971 2972 2962 2965 2962 2955 2955 2954 2950 2948 2944 2940 2943 2935 2932 2928 2925 2924 2923 2925 2923 2924 2925 2924 2923 2924 2924 2924 2923 2924 2926 2927 2929 2934 2938 2942 2947 2950 2953 2957 2959 2962
2967 2966 2961 2955 2954 2951 2953 2947 2942 2942 2937 2934 2934 2928 2924 2923 2919 2914 2912 2912 2912 2912 2914 2915 2913 2912 2912 2912 2915 2914 2913 2913 2914 2915 2918 2921 2925 2930 2934 2938 2942 2947 2950 2952
2954 2954 2952 2945 2943 2938 2938 2939 2931 2924 2924 2920 2917 2920 2915 2909 2907 2902 2901 2900 2899 2900 2902 2902 2903 2901 2901 2900 2902 2902 2902 2901 2901 2901 2903 2907 2912 2917 2922 2925 2929 2933 2938 2940
Wind_Speed
39 35 30 31 29 34 25 18 25 27 24 32 28 33 33 38 40 43 41 39 36 34 36 43 44 42 36 33 30 27 25 24 29 35 36 36 35 33 32 30 28 28 27 27
32 38 49 32 27 30 27 28 36 28 22 26 29 35 33 36 38 40 44 43 39 41 41 44 45 48 47 41 37 32 29 28 27 29 34 37 37 36 34 33 33 31 29 27
41 48 30 30 33 26 37 35 33 31 16 26 28 41 38 51 46 45 45 47 41 40 43 44 44 45 47 51 44 38 36 31 29 29 31 36 41 41 39 37 35 33 33 30
32 34 27 24 36 34 33 35 40 31 29 24 17 21 30 37 34 33 43 48 45 39 39 41 43 44 46 48 50 49 44 40 35 36 35 37 39 39 37 36 34 35 36 35
35 25 29 32 30 27 40 28 32 30 33 31 27 16 44 31 41 36 36 42 42 37 38 40 40 39 38 40 42 49 49 48 45 45 42 39 38 36 36 38 37 37 36 36
34 24 25 38 35 28 23 24 27 33 41 19 40 34 27 34 47 39 38 40 35 31 35 36 35 36 33 35 38 43 46 47 45 48 46 43 40 36 37 38 39 38 36 36
40 35 32 22 28 30 26 27 7 6 7 8 26 28 44 26 22 28 30 36 27 27 34 35 34 35 36 37 38 41 45 47 45 48 50 47 44 39 39 38 38 39 39 38
33 31 41 33 32 34 46 33 7 8 4 9 20 13 28 20 27 23 29 35 32 31 26 26 29 33 35 38 43 43 43 43 43 45 49 48 47 46 43 42 39 40 40 40
21 33 19 36 46 32 25 34 44 27 41 9 11 25 26 26 35 36 38 36 32 30 28 27 28 30 24 33 38 40 43 43 43 44 46 50 48 49 49 45 44 40 39 41
22 18 26 24 24 35 41 30 16 24 6 8 17 34 29 11 19 22 26 23 13 12 21 29 34 36 36 33 34 37 39 40 39 41 41 43 45 46 48 50 49 44 43 42
29 20 14 18 27 35 33 40 39 29 29 14 15 24 34 31 36 38 39 37 36 37 34 27 26 28 31 31 33 33 38 39 38 40 42 41 42 43 44 47 48 48 46 44
36 15 26 26 19 24 31 36 37 14 15 23 39 40 39 22 14 14 20 31 31 15 16 20 15 18 23 28 33 32 35 41 40 40 41 40 42 46 47 45 45 46 47 42
27 24 22 13 20 24 28 34 34 42 43 35 11 27 39 38 39 27 23 15 15 15 11 11 19 20 19 15 15 22 29 33 40 42 41 39 39 43 46 46 45 45 45 50
21 27 25 27 25 17 17 25 34 38 39 29 34 44 63 51 31 24 26 29 30 30 25 25 30 25 16 9 17 20 24 28 32 37 41 43 40 39 41 45 47 46 47 48
23 22 25 33 27 30 33 28 23 34 42 39 46 47 64 53 45 39 40 37 45 51 51 44 41 31 28 22 29 26 23 25 30 32 35 36 36 39 39 43 47 47 49 49
29 17 15 22 26 27 29 34 34 37 39 45 41 49 60 60 52 50 41 34 42 50 52 50 47 40 39 38 32 29 28 25 29 36 36 36 38 38 40 40 44 49 51 50
17 16 12 11 9 14 17 39 35 36 38 37 38 53 51 52 50 43 45 49 48 49 51 48 45 38 43 45 34 29 31 28 29 32 35 38 39 40 41 41 42 45 48 48
23 20 14 12 10 9 29 22 24 27 28 26 33 43 57 54 45 36 40 48 51 52 51 51 48 44 39 40 36 31 25 29 28 30 30 32 34 35 36 37 39 40 42 43
23 22 13 8 13 24 40 39 32 32 39 27 34 44 47 39 39 51 49 39 40 33 34 40 36 39 42 37 34 36 32 33 36 30 28 28 29 28 29 32 33 35 37 39
31 25 17 12 7 8 36 15 14 15 34 27 30 38 39 29 31 45 27 33 36 39 40 42 36 37 40 40 43 46 46 43 43 44 30 29 29 29 29 30 31 33 34 34
13 20 27 24 16 25 27 19 9 19 31 24 21 27 30 37 40 46 41 38 34 37 39 38 38 35 39 38 43 45 44 50 49 44 41 38 37 36 33 32 33 33 34 35
19 15 14 16 15 21 14 11 19 24 33 33 31 36 41 38 38 42 42 39 37 35 34 37 38 38 37 33 38 45 48 47 47 49 41 39 40 41 37 35 35 37 39 40
17 24 16 21 26 21 20 26 27 31 35 43 43 40 46 46 45 46 46 43 41 40 41 42 36 29 31 35 38 45 51 49 46 47 47 41 41 42 41 40 41 41 41 41
22 24 30 30 44 37 41 50 49 48 49 49 49 52 46 55 56 59 58 53 49 44 41 43 42 37 34 31 35 37 44 49 50 47 47 47 43 42 44 45 46 45 43 42
24 26 34 43 44 48 46 50 52 49 50 50 48 51 52 49 55 59 57 53 50 47 43 43 40 36 37 32 33 35 38 41 46 51 49 49 47 44 42 46 48 48 47 44
30 31 36 43 40 46 46 47 52 54 51 51 51 49 53 54 54 59 59 60 59 56 49 45 44 45 41 33 33 35 37 41 41 48 53 52 53 50 45 47 50 51 49 46
Wind_Direction
220 220 227 215 235 242 234 236 251 259 258 244 251 260 257 259 257 259 258 254 247 243 244 245 247 246 246 244 247 249 250 246 241 240 238 237 239 239 240 240 241 241 240 241
222 224 236 228 240 249 232 247 250 254 248 255 256 260 260 258 255 254 260 260 252 250 246 248 246 248 243 245 245 249 250 250 249 245 244 242 241 241 240 241 242 242 242 243
223 231 237 232 234 243 240 251 259 251 254 249 264 271 261 257 262 261 258 259 255 252 255 254 253 247 246 243 246 247 248 249 253 253 247 243 242 240 240 240 242 243 245 243
229 235 226 226 233 234 247 247 249 259 246 244 238 274 264 260 261 254 256 254 256 253 259 259 257 253 252 248 245 246 248 249 254 254 251 247 246 247 248 248 247 248 247 246
224 232 230 232 234 229 245 243 249 242 234 239 239 258 262 256 251 247 253 257 257 257 259 261 261 259 260 249 246 247 248 250 254 253 250 250 249 246 245 245 245 246 246 246
235 233 230 234 239 240 247 243 248 250 256 255 241 226 264 253 251 256 259 263 265 260 258 260 260 257 254 254 246 246 244 247 250 246 249 249 250 249 246 245 246 247 248 248
228 228 234 229 225 228 231 233 224 223 210 235 243 230 240 256 254 256 256 265 267 264 258 261 261 257 252 250 254 249 246 248 249 246 246 247 248 249 251 249 248 247 247 248
221 233 227 221 222 223 218 212 214 215 199 250 246 240 239 265 276 266 263 267 268 271 261 275 264 260 258 254 253 254 247 246 246 246 244 247 249 249 248 252 251 249 247 247
210 233 224 231 230 222 231 227 229 262 273 268 237 260 262 251 264 276 280 280 276 272 269 274 271 262 265 256 253 253 248 245 247 250 250 249 251 249 247 249 253 254 253 250
223 257 231 235 227 231 234 233 227 212 214 220 230 249 257 265 271 281 283 286 284 280 285 264 262 261 266 268 257 249 246 244 248 250 249 248 248 248 248 249 248 251 253 251
222 237 236 219 215 224 224 232 236 255 245 257 264 256 257 266 273 276 278 282 264 268 273 272 280 269 265 263 256 263 247 246 247 249 250 248 246 247 248 250 247 247 248 249
213 234 242 245 235 237 236 235 226 225 225 244 248 260 255 265 272 261 276 268 270 249 254 259 283 311 283 269 264 266 258 251 249 250 250 251 251 249 248 249 246 245 244 249
211 223 238 256 250 250 240 233 239 235 242 253 253 252 258 260 253 262 273 297 217 274 281 305 311 296 295 280 281 268 262 264 253 250 248 250 251 250 249 248 247 245 242 246
198 222 227 235 235 240 231 251 245 242 248 247 244 260 257 259 265 270 263 271 267 266 261 273 304 286 277 285 310 283 268 267 257 251 251 252 252 252 251 246 246 246 246 245
210 223 230 242 252 250 262 265 255 238 242 250 256 256 255 259 267 264 276 268 257 268 270 266 287 277 252 282 302 291 287 270 256 254 252 250 253 253 252 247 243 244 246 248
220 233 239 251 246 253 265 264 260 259 262 264 258 260 255 262 265 259 261 272 269 276 277 279 275 272 265 270 282 290 271 275 261 256 251 251 253 253 250 248 246 244 246 249
222 233 234 253 272 253 252 261 260 263 258 253 253 267 262 268 277 282 286 278 277 278 286 284 278 269 260 270 269 293 272 267 265 259 257 253 251 249 251 253 250 246 246 247
220 231 237 272 282 254 265 267 262 267 266 259 262 267 262 272 294 291 282 283 290 296 295 294 285 282 274 270 261 280 280 266 264 257 257 259 254 251 250 249 248 249 247 247
236 243 249 249 253 272 275 263 265 261 272 264 270 277 280 297 307 286 285 303 300 298 295 292 276 282 268 264 253 259 260 264 255 253 255 255 252 250 249 248 249 250 249 248
232 235 232 236 241 255 269 275 262 271 266 280 268 274 279 278 276 286 293 285 285 287 294 293 273 280 268 256 250 262 268 253 247 246 251 255 249 251 250 250 249 248 246 244
204 218 227 237 247 265 281 288 268 233 258 258 255 255 265 275 277 282 292 294 299 290 288 290 287 275 265 256 253 256 253 246 248 245 249 249 248 242 245 246 245 244 243 236
229 218 216 223 238 261 271 277 224 246 259 275 275 275 278 278 279 280 286 297 302 295 283 295 299 279 272 265 248 246 244 244 247 246 242 240 242 242 242 241 240 237 237 237
234 231 242 226 246 262 279 273 264 266 275 282 279 270 279 277 277 280 283 283 292 297 293 295 297 289 279 273 265 249 244 246 245 240 237 235 238 241 241 243 240 237 237 241
246 244 248 258 265 263 266 269 270 273 278 279 284 291 282 279 280 279 283 285 285 288 293 291 292 286 287 283 272 270 255 251 248 242 237 233 233 238 241 241 240 240 241 244
262 263 265 268 274 274 273 276 278 279 278 280 283 287 287 286 282 283 283 283 284 288 286 289 285 284 278 276 273 268 262 259 254 249 244 238 232 236 242 245 243 245 246 247
282 274 270 273 277 281 281 284 282 282 284 284 284 281 279 281 279 279 279 282 283 284 282 275 271 275 277 272 276 272 266 259 260 252 245 237 233 235 241 240 242 244 247 246